Location: Mexico
(19.4000°N, 99.1500°W)
Time: 23:53:42
(UTC-06:00)

ISS - Pass Details

Date: 16 October 2017
Orbit: 400 x 408 km, 51.6° (Epoch: 24 October)

Event Time Altitude Azimuth Distance (km) Brightness Sun altitude
Rises 18:55:08 0° 342° (NNW) 2,315 0.2 -10.8°
Reaches altitude 10° 18:57:43 10° 4° (N) 1,457 -1.1 -11.4°
Maximum altitude 18:59:56 17° 46° (NE) 1,116 -2.1 -11.9°
Enters shadow 19:00:16 17° 54° (NE) 1,125 -2.1 -12.0°
